Time,TemperatureF,DewpointF,PressureIn,WindDirection,WindDirectionDegrees,WindSpeedMPH,WindSpeedGustMPH,Humidity,HourlyPrecipIn,Conditions,Clouds,dailyrainin,SoftwareType,DateUTC
2013-05-22 00:00:00,50.4,48.7,29.96,NNE,22,3.0,6.0,94,0.00,,,-99.99,WeatherLink 5.7,2013-05-22 04:00:00,
2013-05-22 00:05:00,50.2,48.5,29.96,NE,45,2.0,7.0,94,0.00,,,-99.99,WeatherLink 5.7,2013-05-22 04:05:00,
2013-05-22 00:10:00,50.1,48.4,29.96,NNE,22,1.0,3.0,94,0.00,,,-99.99,WeatherLink 5.7,2013-05-22 04:10:00,
2013-05-22 00:15:00,50.1,48.4,29.96,North,0,1.0,5.0,94,0.00,,,-99.99,WeatherLink 5.7,2013-05-22 04:15:00,
2013-05-22 00:20:00,50.1,48.7,30.02,WSW,247,4.0,10.0,95,0.00,,,-99.99,WeatherLink 5.7,2013-05-22 04:20:00,
2013-05-22 00:30:00,50.1,48.7,30.02,NW,315,1.0,2.0,95,0.00,,,-99.99,WeatherLink 5.7,2013-05-22 04:30:00,
2013-05-22 00:40:00,50.1,48.7,30.01,NW,315,0.0,3.0,95,0.00,,,-99.99,WeatherLink 5.7,2013-05-22 04:40:00,
2013-05-22 00:50:00,49.8,48.4,29.96,East,90,3.0,6.0,95,0.00,,,-99.99,WeatherLink 5.7,2013-05-22 04:50:00,
2013-05-22 01:00:00,49.8,48.7,29.96,ENE,67,2.0,5.0,96,0.00,,,-99.99,WeatherLink 5.7,2013-05-22 05:00:00,
2013-05-22 01:10:00,49.5,48.4,29.91,East,90,2.0,4.0,96,0.00,,,-99.99,WeatherLink 5.7,2013-05-22 05:10:00,
2013-05-22 01:20:00,49.5,48.4,29.89,NE,45,1.0,3.0,96,0.00,,,-99.99,WeatherLink 5.7,2013-05-22 05:20:00,
2013-05-22 01:30:00,49.5,48.7,29.89,SE,135,1.0,6.0,97,0.00,,,-99.99,WeatherLink 5.7,2013-05-22 05:30:00,
2013-05-22 01:40:00,49.5,48.7,29.88,SE,135,2.0,6.0,97,0.00,,,-99.99,WeatherLink 5.7,2013-05-22 05:40:00,
2013-05-22 01:45:00,49.4,48.6,29.88,SSE,157,2.0,6.0,97,0.00,,,-99.99,WeatherLink 5.7,2013-05-22 05:45:00,
2013-05-22 01:55:00,49.4,48.6,29.85,SE,135,1.0,5.0,97,0.00,,,-99.99,WeatherLink 5.7,2013-05-22 05:55:00,
2013-05-22 02:05:00,49.4,48.6,29.84,East,90,2.0,6.0,97,0.00,,,-99.99,WeatherLink 5.7,2013-05-22 06:05:00,
2013-05-22 02:15:00,49.4,48.6,29.84,SE,135,2.0,7.0,97,0.00,,,-99.99,WeatherLink 5.7,2013-05-22 06:15:00,
2013-05-22 02:20:00,49.5,48.7,29.85,WSW,247,2.0,3.0,97,0.00,,,-99.99,WeatherLink 5.7,2013-05-22 06:20:00,
2013-05-22 02:30:00,49.6,48.8,29.85,North,0,0.0,2.0,97,0.00,,,-99.99,WeatherLink 5.7,2013-05-22 06:30:00,
2013-05-22 02:40:00,49.8,49.0,29.90,North,0,0.0,2.0,97,0.00,,,-99.99,WeatherLink 5.7,2013-05-22 06:40:00,
2013-05-22 02:50:00,49.9,49.1,29.89,North,0,0.0,2.0,97,0.00,,,-99.99,WeatherLink 5.7,2013-05-22 06:50:00,
2013-05-22 03:00:00,50.1,49.3,29.89,NNW,337,0.0,1.0,97,0.00,,,-99.99,WeatherLink 5.7,2013-05-22 07:00:00,
2013-05-22 03:05:00,50.1,49.3,29.91,North,-999,0.0,0.0,97,0.00,,,-99.99,WeatherLink 5.7,2013-05-22 07:05:00,
2013-05-22 03:15:00,50.1,49.3,29.91,South,180,0.0,1.0,97,0.00,,,-99.99,WeatherLink 5.7,2013-05-22 07:15:00,
2013-05-22 03:25:00,50.2,49.4,29.89,North,-999,0.0,0.0,97,0.00,,,-99.99,WeatherLink 5.7,2013-05-22 07:25:00,
2013-05-22 03:35:00,50.4,49.6,29.95,West,270,2.0,5.0,97,0.00,,,-99.99,WeatherLink 5.7,2013-05-22 07:35:00,
2013-05-22 03:45:00,50.5,49.7,29.95,West,270,1.0,3.0,97,0.00,,,-99.99,WeatherLink 5.7,2013-05-22 07:45:00,
2013-05-22 03:55:00,50.4,49.6,29.94,ESE,112,1.0,2.0,97,0.00,,,-99.99,WeatherLink 5.7,2013-05-22 07:55:00,
2013-05-22 04:05:00,50.4,49.6,29.91,North,-999,0.0,0.0,97,0.00,,,-99.99,WeatherLink 5.7,2013-05-22 08:05:00,
2013-05-22 04:15:00,50.4,49.6,29.91,North,-999,0.0,0.0,97,0.00,,,-99.99,WeatherLink 5.7,2013-05-22 08:15:00,
2013-05-22 04:25:00,50.2,49.4,29.89,North,-999,0.0,0.0,97,0.00,,,-99.99,WeatherLink 5.7,2013-05-22 08:25:00,
2013-05-22 04:35:00,50.2,49.7,29.88,North,-999,0.0,0.0,98,0.00,,,-99.99,WeatherLink 5.7,2013-05-22 08:35:00,
2013-05-22 04:45:00,50.2,49.7,29.88,North,-999,0.0,0.0,98,0.00,,,-99.99,WeatherLink 5.7,2013-05-22 08:45:00,
2013-05-22 04:55:00,50.2,49.7,29.88,ESE,112,1.0,3.0,98,0.00,,,-99.99,WeatherLink 5.7,2013-05-22 08:55:00,
2013-05-22 05:05:00,50.4,49.9,29.86,East,90,1.0,4.0,98,0.00,,,-99.99,WeatherLink 5.7,2013-05-22 09:05:00,
2013-05-22 05:15:00,50.2,49.7,29.86,South,180,0.0,2.0,98,0.00,,,-99.99,WeatherLink 5.7,2013-05-22 09:15:00,
2013-05-22 05:25:00,50.1,49.6,29.86,SE,135,0.0,3.0,98,0.00,,,-99.99,WeatherLink 5.7,2013-05-22 09:25:00,
2013-05-22 05:35:00,50.1,49.6,29.84,SE,135,2.0,7.0,98,0.00,,,-99.99,WeatherLink 5.7,2013-05-22 09:35:00,
2013-05-22 05:45:00,50.1,49.6,29.84,South,180,1.0,4.0,98,0.00,,,-99.99,WeatherLink 5.7,2013-05-22 09:45:00,
2013-05-22 05:55:00,50.1,49.6,29.84,SE,135,2.0,7.0,98,0.00,,,-99.99,WeatherLink 5.7,2013-05-22 09:55:00,
2013-05-22 06:00:00,50.2,49.7,29.84,SW,225,2.0,11.0,98,0.00,,,-99.99,WeatherLink 5.7,2013-05-22 10:00:00,
2013-05-22 06:10:00,50.4,49.9,29.83,South,180,2.0,8.0,98,0.00,,,-99.99,WeatherLink 5.7,2013-05-22 10:10:00,
2013-05-22 06:20:00,50.4,49.9,29.85,ESE,112,1.0,5.0,98,0.00,,,-99.99,WeatherLink 5.7,2013-05-22 10:20:00,
2013-05-22 06:25:00,50.5,50.0,29.85,ESE,112,0.0,3.0,98,0.00,,,-99.99,WeatherLink 5.7,2013-05-22 10:25:00,
2013-05-22 06:35:00,50.7,50.2,29.86,SSW,202,0.0,1.0,98,0.00,,,-99.99,WeatherLink 5.7,2013-05-22 10:35:00,
2013-05-22 06:45:00,51.0,50.5,29.86,SSW,202,0.0,1.0,98,0.00,,,-99.99,WeatherLink 5.7,2013-05-22 10:45:00,
2013-05-22 06:50:00,51.0,50.5,29.86,North,-999,0.0,0.0,98,0.00,,,-99.99,WeatherLink 5.7,2013-05-22 10:50:00,
2013-05-22 07:00:00,51.3,50.8,29.86,North,-999,0.0,0.0,98,0.00,,,-99.99,WeatherLink 5.7,2013-05-22 11:00:00,
2013-05-22 07:05:00,51.6,51.1,29.87,North,-999,0.0,0.0,98,0.00,,,-99.99,WeatherLink 5.7,2013-05-22 11:05:00,
2013-05-22 07:15:00,51.7,51.2,29.87,North,-999,0.0,0.0,98,0.00,,,-99.99,WeatherLink 5.7,2013-05-22 11:15:00,
2013-05-22 07:25:00,51.9,51.4,29.86,North,-999,0.0,0.0,98,0.00,,,-99.99,WeatherLink 5.7,2013-05-22 11:25:00,
2013-05-22 07:35:00,51.9,51.4,29.85,South,180,0.0,1.0,98,0.00,,,-99.99,WeatherLink 5.7,2013-05-22 11:35:00,
2013-05-22 07:40:00,51.9,51.4,29.85,North,-999,0.0,0.0,98,0.00,,,-99.99,WeatherLink 5.7,2013-05-22 11:40:00,
2013-05-22 07:45:00,51.9,51.4,29.85,North,-999,0.0,0.0,98,0.00,,,-99.99,WeatherLink 5.7,2013-05-22 11:45:00,
2013-05-22 07:55:00,52.3,51.8,29.86,North,-999,0.0,0.0,98,0.00,,,-99.99,WeatherLink 5.7,2013-05-22 11:55:00,
2013-05-22 08:05:00,52.8,52.3,29.86,North,-999,0.0,0.0,98,0.00,,,-99.99,WeatherLink 5.7,2013-05-22 12:05:00,
2013-05-22 08:10:00,52.9,52.4,29.86,North,-999,0.0,0.0,98,0.00,,,-99.99,WeatherLink 5.7,2013-05-22 12:10:00,
2013-05-22 08:20:00,53.2,52.9,29.85,North,-999,0.0,0.0,99,0.00,,,-99.99,WeatherLink 5.7,2013-05-22 12:20:00,
2013-05-22 08:30:00,53.3,53.0,29.85,North,-999,0.0,0.0,99,0.00,,,-99.99,WeatherLink 5.7,2013-05-22 12:30:00,
2013-05-22 08:35:00,53.8,53.5,29.86,North,-999,0.0,0.0,99,0.00,,,-99.99,WeatherLink 5.7,2013-05-22 12:35:00,
2013-05-22 08:45:00,54.1,53.8,29.86,North,-999,0.0,0.0,99,0.00,,,-99.99,WeatherLink 5.7,2013-05-22 12:45:00,
2013-05-22 08:55:00,54.2,53.9,29.86,North,-999,0.0,0.0,99,0.00,,,-99.99,WeatherLink 5.7,2013-05-22 12:55:00,
2013-05-22 09:05:00,54.5,53.9,29.87,North,-999,0.0,0.0,98,0.00,,,-99.99,WeatherLink 5.7,2013-05-22 13:05:00,
2013-05-22 09:15:00,55.6,55.3,29.87,North,-999,0.0,0.0,99,0.00,,,-99.99,WeatherLink 5.7,2013-05-22 13:15:00,
2013-05-22 09:25:00,55.9,55.3,29.87,North,-999,0.0,0.0,98,0.00,,,-99.99,WeatherLink 5.7,2013-05-22 13:25:00,
2013-05-22 09:35:00,54.7,53.9,29.86,SSE,157,0.0,1.0,97,0.00,,,-99.99,WeatherLink 5.7,2013-05-22 13:35:00,
2013-05-22 09:45:00,55.4,54.8,29.86,North,-999,0.0,0.0,98,0.00,,,-99.99,WeatherLink 5.7,2013-05-22 13:45:00,
2013-05-22 09:55:00,55.9,55.1,29.87,North,-999,0.0,0.0,97,0.00,,,-99.99,WeatherLink 5.7,2013-05-22 13:55:00,
2013-05-22 10:05:00,56.0,54.9,29.86,North,-999,0.0,0.0,96,0.00,,,-99.99,WeatherLink 5.7,2013-05-22 14:05:00,
2013-05-22 10:10:00,56.2,55.1,29.86,SSE,157,0.0,1.0,96,0.00,,,-99.99,WeatherLink 5.7,2013-05-22 14:10:00,
2013-05-22 10:20:00,56.6,55.2,29.87,SSE,157,0.0,1.0,95,0.00,,,-99.99,WeatherLink 5.7,2013-05-22 14:20:00,
2013-05-22 10:25:00,56.6,54.9,29.87,SSE,157,0.0,2.0,94,0.00,,,-99.99,WeatherLink 5.7,2013-05-22 14:25:00,
2013-05-22 10:35:00,56.6,54.6,29.87,North,-999,0.0,0.0,93,0.00,,,-99.99,WeatherLink 5.7,2013-05-22 14:35:00,
2013-05-22 10:40:00,56.7,55.0,29.87,SSE,157,0.0,2.0,94,0.00,,,-99.99,WeatherLink 5.7,2013-05-22 14:40:00,
2013-05-22 10:50:00,56.9,54.9,29.87,SSE,157,0.0,1.0,93,0.00,,,-99.99,WeatherLink 5.7,2013-05-22 14:50:00,
2013-05-22 11:00:00,57.5,55.5,29.87,North,-999,0.0,0.0,93,0.00,,,-99.99,WeatherLink 5.7,2013-05-22 15:00:00,
2013-05-22 11:10:00,57.5,55.2,29.87,North,-999,0.0,0.0,92,0.00,,,-99.99,WeatherLink 5.7,2013-05-22 15:10:00,
2013-05-22 11:20:00,57.8,55.5,29.88,SSE,157,0.0,2.0,92,0.00,,,-99.99,WeatherLink 5.7,2013-05-22 15:20:00,
2013-05-22 11:30:00,58.3,56.0,29.88,North,-999,0.0,0.0,92,0.00,,,-99.99,WeatherLink 5.7,2013-05-22 15:30:00,
2013-05-22 11:40:00,59.0,56.4,29.88,North,-999,0.0,0.0,91,0.00,,,-99.99,WeatherLink 5.7,2013-05-22 15:40:00,
2013-05-22 11:50:00,59.2,56.3,29.88,SSE,157,0.0,1.0,90,0.00,,,-99.99,WeatherLink 5.7,2013-05-22 15:50:00,
2013-05-22 12:00:00,59.5,56.3,29.88,SSE,157,0.0,1.0,89,0.00,,,-99.99,WeatherLink 5.7,2013-05-22 16:00:00,
2013-05-22 12:10:00,59.9,56.6,29.88,SSE,157,1.0,2.0,89,0.00,,,-99.99,WeatherLink 5.7,2013-05-22 16:10:00,
2013-05-22 12:20:00,60.2,56.3,29.88,SSE,157,0.0,3.0,87,0.00,,,-99.99,WeatherLink 5.7,2013-05-22 16:20:00,
2013-05-22 12:25:00,60.5,56.6,29.88,SE,135,0.0,2.0,87,0.00,,,-99.99,WeatherLink 5.7,2013-05-22 16:25:00,
2013-05-22 12:35:00,60.9,57.0,29.88,SE,135,0.0,2.0,87,0.00,,,-99.99,WeatherLink 5.7,2013-05-22 16:35:00,
2013-05-22 12:45:00,61.6,57.7,29.88,SSE,157,1.0,2.0,87,0.00,,,-99.99,WeatherLink 5.7,2013-05-22 16:45:00,
2013-05-22 12:55:00,62.6,57.7,29.88,SE,135,1.0,2.0,84,0.00,,,-99.99,WeatherLink 5.7,2013-05-22 16:55:00,
2013-05-22 13:05:00,62.3,58.1,29.88,ESE,112,1.0,2.0,86,0.00,,,-99.99,WeatherLink 5.7,2013-05-22 17:05:00,
2013-05-22 13:15:00,62.9,58.0,29.88,North,-999,0.0,0.0,84,0.00,,,-99.99,WeatherLink 5.7,2013-05-22 17:15:00,
2013-05-22 13:25:00,63.2,58.3,29.87,ESE,112,0.0,3.0,84,0.00,,,-99.99,WeatherLink 5.7,2013-05-22 17:25:00,
2013-05-22 13:35:00,63.1,58.2,29.87,East,90,1.0,2.0,84,0.00,,,-99.99,WeatherLink 5.7,2013-05-22 17:35:00,
2013-05-22 13:45:00,64.0,58.7,29.87,East,90,1.0,2.0,83,0.00,,,-99.99,WeatherLink 5.7,2013-05-22 17:45:00,
2013-05-22 13:50:00,64.2,58.9,29.86,East,90,1.0,3.0,83,0.00,,,-99.99,WeatherLink 5.7,2013-05-22 17:50:00,
2013-05-22 14:00:00,65.0,59.7,29.86,ENE,67,1.0,3.0,83,0.00,,,-99.99,WeatherLink 5.7,2013-05-22 18:00:00,
2013-05-22 14:10:00,65.6,59.3,29.86,NE,45,2.0,5.0,80,0.00,,,-99.99,WeatherLink 5.7,2013-05-22 18:10:00,
2013-05-22 14:20:00,65.3,59.7,29.85,NE,45,1.0,3.0,82,0.00,,,-99.99,WeatherLink 5.7,2013-05-22 18:20:00,
2013-05-22 14:30:00,65.2,59.9,29.85,ESE,112,2.0,3.0,83,0.00,,,-99.99,WeatherLink 5.7,2013-05-22 18:30:00,
2013-05-22 14:40:00,65.5,59.9,29.85,NE,45,0.0,3.0,82,0.00,,,-99.99,WeatherLink 5.7,2013-05-22 18:40:00,
2013-05-22 14:50:00,66.0,60.0,29.84,ENE,67,1.0,4.0,81,0.00,,,-99.99,WeatherLink 5.7,2013-05-22 18:50:00,
2013-05-22 15:00:00,66.0,60.3,29.84,NE,45,1.0,3.0,82,0.00,,,-99.99,WeatherLink 5.7,2013-05-22 19:00:00,
2013-05-22 15:10:00,65.8,60.2,29.84,SSE,157,0.0,1.0,82,0.00,,,-99.99,WeatherLink 5.7,2013-05-22 19:10:00,
2013-05-22 15:20:00,65.8,60.2,29.84,NE,45,1.0,2.0,82,0.00,,,-99.99,WeatherLink 5.7,2013-05-22 19:20:00,
2013-05-22 15:30:00,65.5,60.2,29.84,East,90,1.0,3.0,83,0.00,,,-99.99,WeatherLink 5.7,2013-05-22 19:30:00,
2013-05-22 15:40:00,65.2,60.2,29.84,NE,45,1.0,2.0,84,0.00,,,-99.99,WeatherLink 5.7,2013-05-22 19:40:00,
2013-05-22 15:50:00,64.2,58.9,29.85,East,90,2.0,5.0,83,0.00,,,-99.99,WeatherLink 5.7,2013-05-22 19:50:00,
2013-05-22 16:00:00,62.9,57.7,29.85,ENE,67,2.0,3.0,83,0.00,,,-99.99,WeatherLink 5.7,2013-05-22 20:00:00,
2013-05-22 16:10:00,62.6,57.7,29.85,NE,45,2.0,4.0,84,0.00,,,-99.99,WeatherLink 5.7,2013-05-22 20:10:00,
2013-05-22 16:20:00,62.1,57.2,29.84,ENE,67,2.0,5.0,84,0.00,,,-99.99,WeatherLink 5.7,2013-05-22 20:20:00,
2013-05-22 16:30:00,62.1,57.5,29.84,ENE,67,2.0,5.0,85,0.00,,,-99.99,WeatherLink 5.7,2013-05-22 20:30:00,
2013-05-22 16:40:00,62.0,56.8,29.84,East,90,3.0,5.0,83,0.00,,,-99.99,WeatherLink 5.7,2013-05-22 20:40:00,
2013-05-22 16:45:00,62.0,56.4,29.84,ENE,67,3.0,7.0,82,0.00,,,-99.99,WeatherLink 5.7,2013-05-22 20:45:00,
2013-05-22 16:55:00,61.6,56.4,29.84,East,90,2.0,4.0,83,0.00,,,-99.99,WeatherLink 5.7,2013-05-22 20:55:00,
2013-05-22 17:05:00,61.2,56.7,29.84,ENE,67,2.0,4.0,85,0.00,,,-99.99,WeatherLink 5.7,2013-05-22 21:05:00,
2013-05-22 17:10:00,61.0,56.5,29.84,ENE,67,2.0,6.0,85,0.00,,,-99.99,WeatherLink 5.7,2013-05-22 21:10:00,
2013-05-22 17:20:00,60.9,56.0,29.84,ENE,67,3.0,6.0,84,0.00,,,-99.99,WeatherLink 5.7,2013-05-22 21:20:00,
2013-05-22 17:30:00,60.2,55.7,29.84,East,90,3.0,7.0,85,0.00,,,-99.99,WeatherLink 5.7,2013-05-22 21:30:00,
2013-05-22 17:40:00,59.5,55.3,29.84,ENE,67,3.0,6.0,86,0.00,,,-99.99,WeatherLink 5.7,2013-05-22 21:40:00,
2013-05-22 17:50:00,59.2,55.0,29.84,ENE,67,2.0,5.0,86,0.00,,,-99.99,WeatherLink 5.7,2013-05-22 21:50:00,
2013-05-22 18:00:00,58.9,55.0,29.84,ENE,67,2.0,4.0,87,0.00,,,-99.99,WeatherLink 5.7,2013-05-22 22:00:00,
2013-05-22 18:05:00,58.7,54.5,29.85,ENE,67,2.0,5.0,86,0.00,,,-99.99,WeatherLink 5.7,2013-05-22 22:05:00,
2013-05-22 18:15:00,58.3,54.4,29.85,ENE,67,2.0,5.0,87,0.00,,,-99.99,WeatherLink 5.7,2013-05-22 22:15:00,
2013-05-22 18:25:00,57.6,54.1,29.85,ENE,67,3.0,6.0,88,0.00,,,-99.99,WeatherLink 5.7,2013-05-22 22:25:00,
2013-05-22 18:35:00,57.2,54.0,29.86,ENE,67,2.0,4.0,89,0.00,,,-99.99,WeatherLink 5.7,2013-05-22 22:35:00,
2013-05-22 18:40:00,57.0,53.8,29.86,ENE,67,2.0,5.0,89,0.00,,,-99.99,WeatherLink 5.7,2013-05-22 22:40:00,
2013-05-22 18:50:00,56.7,53.5,29.86,ENE,67,1.0,3.0,89,0.00,,,-99.99,WeatherLink 5.7,2013-05-22 22:50:00,
2013-05-22 18:55:00,56.6,53.4,29.86,ENE,67,2.0,3.0,89,0.00,,,-99.99,WeatherLink 5.7,2013-05-22 22:55:00,
2013-05-22 19:05:00,56.3,53.4,29.88,ENE,67,1.0,2.0,90,0.00,,,-99.99,WeatherLink 5.7,2013-05-22 23:05:00,
2013-05-22 19:15:00,56.0,53.4,29.88,NE,45,1.0,2.0,91,0.00,,,-99.99,WeatherLink 5.7,2013-05-22 23:15:00,
2013-05-22 19:20:00,56.0,53.4,29.88,NE,45,1.0,3.0,91,0.00,,,-99.99,WeatherLink 5.7,2013-05-22 23:20:00,
2013-05-22 19:30:00,55.9,53.6,29.88,ENE,67,1.0,3.0,92,0.00,,,-99.99,WeatherLink 5.7,2013-05-22 23:30:00,
2013-05-22 19:40:00,55.9,53.6,29.88,NE,45,0.0,2.0,92,0.00,,,-99.99,WeatherLink 5.7,2013-05-22 23:40:00,
2013-05-22 19:45:00,55.7,53.7,29.88,North,-999,0.0,0.0,93,0.00,,,-99.99,WeatherLink 5.7,2013-05-22 23:45:00,
2013-05-22 19:50:00,55.6,53.6,29.89,North,-999,0.0,0.0,93,0.00,,,-99.99,WeatherLink 5.7,2013-05-22 23:50:00,
2013-05-22 20:00:00,55.3,53.9,29.89,ENE,67,1.0,3.0,95,0.00,,,-99.99,WeatherLink 5.7,2013-05-23 00:00:00,
2013-05-22 20:10:00,55.0,53.6,29.88,ENE,67,1.0,3.0,95,0.00,,,-99.99,WeatherLink 5.7,2013-05-23 00:10:00,
2013-05-22 20:20:00,54.8,53.7,29.88,ENE,67,1.0,3.0,96,0.00,,,-99.99,WeatherLink 5.7,2013-05-23 00:20:00,
2013-05-22 20:25:00,54.7,53.6,29.88,ENE,67,1.0,3.0,96,0.00,,,-99.99,WeatherLink 5.7,2013-05-23 00:25:00,
2013-05-22 20:35:00,54.7,53.6,29.89,North,-999,0.0,0.0,96,0.00,,,-99.99,WeatherLink 5.7,2013-05-23 00:35:00,
2013-05-22 20:40:00,54.7,53.6,29.89,North,-999,0.0,0.0,96,0.00,,,-99.99,WeatherLink 5.7,2013-05-23 00:40:00,
2013-05-22 20:50:00,54.5,53.4,29.88,ENE,67,1.0,4.0,96,0.00,,,-99.99,WeatherLink 5.7,2013-05-23 00:50:00,
2013-05-22 20:55:00,54.2,53.1,29.88,ENE,67,1.0,3.0,96,0.00,,,-99.99,WeatherLink 5.7,2013-05-23 00:55:00,
2013-05-22 21:05:00,54.1,53.0,29.89,ENE,67,1.0,2.0,96,0.00,,,-99.99,WeatherLink 5.7,2013-05-23 01:05:00,
2013-05-22 21:15:00,54.1,53.3,29.89,ENE,67,1.0,3.0,97,0.00,,,-99.99,WeatherLink 5.7,2013-05-23 01:15:00,
2013-05-22 21:25:00,54.1,53.3,29.89,North,-999,0.0,0.0,97,0.00,,,-99.99,WeatherLink 5.7,2013-05-23 01:25:00,
2013-05-22 21:35:00,54.1,53.3,29.89,ENE,67,0.0,1.0,97,0.00,,,-99.99,WeatherLink 5.7,2013-05-23 01:35:00,
2013-05-22 21:45:00,54.1,53.3,29.89,ENE,67,0.0,2.0,97,0.00,,,-99.99,WeatherLink 5.7,2013-05-23 01:45:00,
2013-05-22 21:55:00,53.9,53.1,29.89,North,-999,0.0,0.0,97,0.00,,,-99.99,WeatherLink 5.7,2013-05-23 01:55:00,
2013-05-22 22:00:00,53.8,53.0,29.89,ENE,67,1.0,2.0,97,0.00,,,-99.99,WeatherLink 5.7,2013-05-23 02:00:00,
2013-05-22 22:10:00,53.6,52.8,29.90,North,-999,0.0,0.0,97,0.00,,,-99.99,WeatherLink 5.7,2013-05-23 02:10:00,
2013-05-22 22:20:00,53.5,52.7,29.90,ENE,67,0.0,2.0,97,0.00,,,-99.99,WeatherLink 5.7,2013-05-23 02:20:00,
2013-05-22 22:25:00,53.5,52.7,29.90,NE,45,0.0,2.0,97,0.00,,,-99.99,WeatherLink 5.7,2013-05-23 02:25:00,
2013-05-22 22:35:00,53.3,52.5,29.90,NE,45,0.0,1.0,97,0.00,,,-99.99,WeatherLink 5.7,2013-05-23 02:35:00,
2013-05-22 22:40:00,53.3,52.5,29.90,North,-999,0.0,0.0,97,0.00,,,-99.99,WeatherLink 5.7,2013-05-23 02:40:00,
2013-05-22 22:45:00,53.3,52.5,29.90,North,-999,0.0,0.0,97,0.00,,,-99.99,WeatherLink 5.7,2013-05-23 02:45:00,
2013-05-22 22:55:00,53.3,52.5,29.89,North,-999,0.0,0.0,97,0.00,,,-99.99,WeatherLink 5.7,2013-05-23 02:55:00,
2013-05-22 23:05:00,53.3,52.5,29.89,North,-999,0.0,0.0,97,0.00,,,-99.99,WeatherLink 5.7,2013-05-23 03:05:00,
2013-05-22 23:15:00,53.2,52.4,29.89,North,-999,0.0,0.0,97,0.00,,,-99.99,WeatherLink 5.7,2013-05-23 03:15:00,
2013-05-22 23:25:00,53.1,52.3,29.88,North,-999,0.0,0.0,97,0.00,,,-99.99,WeatherLink 5.7,2013-05-23 03:25:00,
2013-05-22 23:35:00,53.1,52.3,29.88,North,-999,0.0,0.0,97,0.00,,,-99.99,WeatherLink 5.7,2013-05-23 03:35:00,
2013-05-22 23:45:00,53.1,52.3,29.88,North,-999,0.0,0.0,97,0.00,,,-99.99,WeatherLink 5.7,2013-05-23 03:45:00,
2013-05-22 23:55:00,53.1,52.3,29.88,North,-999,0.0,0.0,97,0.00,,,-99.99,WeatherLink 5.7,2013-05-23 03:55:00,